Hialeah, FL

2:45 AM EST on January 21, 2017 (GMT -0500)
Little Havana-West Flagler Street in Miami Florida | | Change Station

Elev 13 ft 25.77 °N, 80.25 °W | Updated 15 seconds ago

Scattered Clouds
Scattered Clouds
63.0 °F
Feels Like 63.0 °F
N
0.0
Wind Variable Wind from SW
Gusts 0.0 mph

Today
High -- | Low -- °F
--% Chance of Precip.
Yesterday
High -- | Low -- °F
Precip. -- in
Pressure 30.00 in
Visibility 10.0 miles
Clouds Few 1500 ft
Scattered Clouds 25000 ft
Dew Point 58 °F
Humidity 83%
Rainfall 0.00 in
Snow Depth Not available.
7:08 AM 5:56 PM
Last Quarter, 37% visible
METAR KMIA 210653Z 00000KT 10SM FEW015 SCT250 20/17 A3000 RMK AO2 SLP159 T02000167
Pressure 30.00 in
Visibility 10.0 miles
Clouds Few 1500 ft
Scattered Clouds 25000 ft
Dew Point 58 °F
Humidity 83%
Rainfall 0.00 in
Snow Depth Not available.
7:08 AM 5:56 PM
Last Quarter, 37% visible
METAR KMIA 210653Z 00000KT 10SM FEW015 SCT250 20/17 A3000 RMK AO2 SLP159 T02000167

Get Your Daily Forecast Email!

Thanks for signing up!

Be on the lookout for a verification email in your inbox.

You'll start receiving the daily forecast at 8 AM.

×

10-Day Weather Forecast

Almanac

Astronomy

Jan. 21, 2017 Rise Set
Actual Time
Civil Twilight
Nautical Twilight
Astronomical Twilight
Moon
Length of Visible Light
Length of Day
Tomorrow will be .
, % of the Moon is Illuminated

Today's Extremes

State Highs State Lows

Community

WunderPhotos

Upload Photos

1,962,540 photos uploaded!

WunderBlog® & News

Nearby

Air Quality

  Air Quality AQ Index Pollutant
Not available.

Snow Depth

Station Depth Elevation

Earthquake Activity

City Distance Mag. Time & Date
Minimum magnitude displayed is 2.5.

Coastal Water Temperatures

Place Temperature

Stations

Nearby Weather Stations

Station Location Temp. Windchill Dew Point Humidity Wind Precip. Elev Updated Type
                   

Watches & Warnings

There are currently no watches in effect.